Wind_Speed
37 38 39 39 39 39 41 42 43 44 44 45 45 45 45 45 45 46 46 46 46 47 47 47 47 46 46 46 45 45 45 44 44 44 44 43 42 41 41 41 41 40 40
36 37 38 38 38 39 40 41 43 44 44 45 46 46 45 45 46 46 46 47 48 48 49 49 48 48 48 48 48 48 47 46 46 46 46 45 44 43 43 42 42 42 41
36 36 37 38 38 39 39 41 43 44 44 45 46 46 45 45 46 47 47 47 48 49 50 50 50 50 51 51 51 51 50 48 47 47 47 47 46 45 44 44 44 44 44
35 37 37 38 39 39 40 42 43 44 44 45 46 47 46 46 47 47 48 48 49 50 51 52 52 51 52 51 51 51 51 50 49 48 49 49 48 48 47 46 46 46 46
36 37 37 39 39 40 41 42 42 44 44 45 46 46 47 47 47 48 48 48 49 51 52 53 52 53 53 52 51 52 51 51 51 50 51 51 50 50 49 49 49 49 48
36 36 37 39 40 40 41 42 43 44 44 44 45 46 47 47 48 49 49 49 50 51 52 53 53 53 53 53 52 52 52 51 52 51 51 51 51 50 50 50 50 50 50
37 38 38 38 39 40 40 41 42 43 43 44 44 46 47 48 48 49 50 50 51 52 53 53 53 53 53 52 52 52 52 52 52 52 51 52 52 52 52 52 51 51 52
36 37 38 38 39 39 40 40 41 42 43 44 45 45 46 47 48 50 51 51 51 52 52 52 53 53 52 52 52 52 51 52 52 52 52 52 52 53 53 54 53 53 53
35 36 37 38 39 39 40 41 41 42 43 44 45 45 45 46 47 50 51 52 52 52 52 53 53 54 54 53 53 54 53 53 54 54 54 53 53 54 54 55 55 54 54
37 36 37 37 38 39 40 41 41 42 43 44 45 45 45 46 47 49 51 51 52 51 52 51 51 52 53 54 56 56 56 55 55 55 55 55 54 54 54 55 55 55 55
38 38 38 38 39 40 41 42 42 43 44 45 45 46 46 46 47 48 49 50 51 50 50 51 52 52 54 55 57 57 57 57 57 56 56 55 55 55 55 56 56 56 56
38 38 39 39 39 40 41 42 42 42 43 44 46 46 47 48 48 49 50 50 50 50 50 51 51 52 53 55 56 57 57 57 57 56 57 56 55 55 56 57 57 57 56
39 39 39 40 40 41 41 42 42 43 44 45 45 46 47 49 49 50 50 49 49 51 51 51 52 53 53 53 54 57 57 57 57 57 57 57 56 56 56 57 58 58 57
40 40 40 40 41 41 42 42 43 43 43 44 45 46 46 48 48 48 48 49 49 50 51 51 51 53 54 54 55 55 56 57 57 57 57 57 57 57 56 57 58 58 58
40 40 41 41 42 42 42 42 42 43 43 44 45 46 46 46 46 46 47 48 49 50 51 52 52 52 54 55 55 56 56 55 55 56 56 56 56 56 56 57 58 58 58
40 40 40 41 42 42 41 41 41 41 42 43 44 46 45 45 45 46 47 48 48 50 51 51 52 52 53 54 55 55 56 56 56 55 55 56 56 56 56 56 57 58 59
38 39 39 39 40 41 41 41 41 41 42 43 44 44 44 44 44 45 46 47 48 49 50 51 51 52 53 53 54 55 55 56 56 56 55 55 55 55 56 55 55 56 57
38 39 39 39 39 40 40 40 41 42 42 43 43 43 44 44 44 46 46 46 47 48 48 49 49 50 50 51 52 53 54 54 55 56 55 54 54 55 55 56 55 56 56
38 38 38 39 38 38 39 39 40 41 41 41 42 42 42 42 43 44 44 44 45 46 47 47 47 48 48 49 50 52 53 53 53 54 54 54 54 55 55 56 55 55 55
37 37 37 37 37 37 38 38 39 39 40 40 40 41 41 42 42 43 44 44 44 45 45 45 45 46 46 48 48 50 51 52 53 53 53 53 53 53 54 56 56 55 54
35 35 36 36 37 37 38 38 39 38 39 39 39 39 40 40 42 43 43 44 44 44 44 45 45 46 46 47 48 49 50 52 52 53 53 53 53 53 54 55 56 55 55
35 35 36 36 37 38 38 38 38 38 38 38 39 39 39 40 41 42 43 43 43 43 44 44 45 46 46 47 47 49 50 51 51 51 51 52 52 53 53 54 55 55 54
36 36 36 37 37 38 38 38 37 37 37 38 38 39 39 40 40 41 42 43 44 44 44 44 44 45 46 46 46 47 47 48 49 48 49 49 50 51 52 52 53 53 52
36 36 37 37 37 38 38 37 37 37 37 37 38 38 39 39 40 41 41 42 42 43 44 43 43 43 44 45 45 45 46 46 47 47 47 48 49 50 51 50 50 50 50
36 36 36 36 36 36 36 36 36 37 37 38 38 38 38 39 39 39 40 41 42 42 42 42 42 41 42 43 43 44 44 44 45 45 45 45 46 48 49 50 50 50 49
35 36 35 35 35 35 34 35 35 36 37 37 37 37 37 37 38 38 38 39 40 40 41 41 41 40 41 41 41 42 42 43 43 44 44 44 44 46 48 49 49 49 49
Wind_Direction
268 266 264 263 261 261 260 259 257 257 258 259 259 259 259 259 258 257 256 256 256 258 258 258 259 259 258 257 257 258 258 258 258 257 257 257 257 256 255 253 252 251 251
269 267 265 263 262 261 261 259 259 258 259 259 259 259 259 259 258 257 257 257 257 258 258 258 260 259 259 259 259 259 259 259 258 257 256 256 256 255 254 253 252 251 251
271 269 266 263 262 263 263 261 260 260 260 260 260 258 258 260 258 257 257 257 258 258 258 258 259 260 260 261 260 259 259 259 258 258 257 256 256 255 254 253 252 251 251
274 272 267 264 264 264 264 262 262 262 262 261 260 260 259 260 259 258 258 258 259 259 259 259 259 260 261 261 261 260 259 258 258 258 258 257 256 255 254 253 252 252 251
276 274 269 266 266 266 265 264 263 263 262 262 262 262 261 260 259 258 260 260 260 260 260 259 259 259 260 260 259 259 259 258 258 258 258 257 256 256 254 252 252 251 251
277 276 273 270 269 268 267 266 265 264 263 263 263 262 262 261 259 259 261 260 261 260 259 259 259 259 258 259 258 258 258 258 258 258 258 257 256 256 255 253 252 251 251
278 277 276 273 271 269 268 267 265 264 263 263 263 263 263 262 260 261 261 262 263 262 260 259 258 258 258 258 257 257 257 258 258 258 258 257 256 256 255 254 253 252 251
279 278 277 275 273 272 270 268 267 265 264 264 264 264 264 263 262 262 262 263 263 264 261 258 258 257 257 257 257 257 257 258 258 258 258 258 257 256 255 254 254 253 252
280 279 277 276 274 273 272 271 269 266 265 265 266 266 266 266 264 264 264 263 263 263 262 259 257 256 256 256 256 256 257 259 260 259 259 258 258 257 256 255 255 254 253
280 279 278 278 276 275 273 272 271 268 268 267 268 268 267 268 266 266 266 264 263 263 260 259 258 256 255 256 256 256 257 259 259 259 258 258 258 258 258 256 256 255 254
281 279 279 278 278 277 275 273 273 271 269 269 269 269 269 269 268 268 267 266 264 263 260 260 260 258 257 257 257 257 258 258 258 258 257 257 258 258 258 257 257 256 256
282 281 279 279 278 278 278 276 274 273 272 271 270 271 271 270 269 268 267 266 264 262 261 260 261 261 261 260 258 258 258 258 257 256 256 257 257 257 257 257 257 257 257
284 283 281 278 278 279 279 278 275 275 273 273 273 273 273 272 270 269 268 266 264 263 263 262 263 263 263 263 261 260 258 257 257 257 257 257 257 257 257 257 257 257 257
287 285 283 280 280 280 280 279 276 275 273 274 275 275 274 273 271 269 267 266 265 264 264 264 265 265 264 263 263 261 259 257 256 256 256 256 257 258 257 257 257 257 257
287 287 285 283 281 280 279 278 277 275 274 274 275 276 275 273 271 268 266 265 265 265 265 265 266 267 266 265 263 261 259 257 257 257 256 256 257 257 257 257 257 256 256
288 288 286 285 283 281 279 278 276 276 276 276 276 276 274 273 272 270 268 266 267 267 267 267 267 268 267 266 265 263 260 258 257 257 257 256 256 256 257 257 256 256 256
288 288 288 287 285 283 280 278 277 276 277 278 276 275 274 273 273 272 269 268 268 268 268 268 268 269 268 266 265 263 261 259 257 257 256 256 256 256 256 256 256 256 255
289 289 288 287 286 285 283 281 280 279 278 278 276 275 274 273 272 272 271 270 269 269 269 270 270 269 268 266 264 263 261 259 258 257 256 256 255 256 256 256 256 256 256
291 290 289 288 287 286 285 284 283 281 279 278 277 276 275 273 272 273 272 270 270 270 270 270 270 269 268 267 265 263 262 259 258 257 257 257 256 256 256 257 257 256 256
292 291 290 289 288 288 287 286 285 283 282 280 278 278 276 275 273 273 272 272 271 271 271 271 271 270 269 267 266 265 263 260 259 258 258 257 257 256 256 257 257 256 255
292 292 292 291 290 289 288 287 286 285 284 282 281 280 279 277 275 274 273 272 272 272 272 272 271 270 269 268 267 266 264 263 261 259 258 258 257 256 256 256 257 257 255
292 293 294 294 293 291 290 288 287 286 284 283 282 281 280 278 277 275 275 274 273 272 272 273 273 271 269 268 268 266 264 263 262 261 259 258 257 257 257 256 256 256 255
293 294 295 295 295 293 292 290 287 286 285 285 284 284 282 280 279 277 276 275 274 274 274 274 273 271 270 269 268 266 264 263 262 261 260 259 259 259 258 257 255 255 255
294 294 295 296 295 294 293 291 288 287 287 287 287 286 285 283 282 280 279 277 276 275 274 274 273 273 270 269 268 266 265 264 262 261 260 259 259 259 257 256 254 254 253
294 295 296 297 297 297 296 294 292 290 289 288 287 286 285 284 283 281 280 278 277 277 277 275 274 273 272 270 268 267 266 264 262 261 261 260 259 257 256 254 254 254 253
295 296 297 298 299 299 298 296 295 294 292 290 288 287 286 285 283 282 281 280 279 278 277 275 275 274 273 272 270 269 268 267 265 263 263 261 259 257 256 254 254 253 254
Height
5691 5691 5692 5693 5695 5697 5698 5699 5701 5703 5704 5706 5707 5709 5711 5712 5714 5716 5719 5722 5724 5727 5729 5731 5733 5735 5737 5739 5741 5743 5744 5746 5748 5750 5752 5754 5755 5757 5759 5762 5764 5766 5769
5681 5682 5682 5683 5685 5686 5687 5689 5690 5691 5693 5694 5695 5697 5699 5700 5702 5704 5707 5709 5712 5714 5716 5719 5721 5723 5725 5727 5729 5730 5732 5734 5736 5737 5739 5742 5745 5746 5748 5750 5753 5756 5758
5672 5672 5672 5673 5675 5676 5677 5678 5679 5680 5681 5682 5684 5685 5687 5688 5690 5692 5695 5697 5699 5701 5703 5706 5708 5710 5712 5714 5716 5717 5719 5721 5723 5724 5726 5729 5732 5734 5737 5739 5742 5744 5747
5663 5663 5663 5664 5665 5666 5666 5667 5668 5669 5670 5671 5672 5673 5675 5676 5678 5680 5682 5684 5686 5688 5690 5692 5694 5696 5698 5700 5702 5703 5705 5708 5710 5712 5713 5716 5718 5721 5725 5728 5730 5732 5736
5655 5654 5654 5654 5655 5655 5655 5656 5657 5657 5658 5659 5660 5660 5662 5664 5665 5667 5669 5670 5672 5674 5676 5678 5680 5682 5683 5685 5688 5690 5692 5694 5696 5698 5700 5702 5704 5707 5711 5715 5718 5720 5723
5646 5645 5644 5644 5644 5644 5644 5645 5645 5646 5646 5647 5647 5648 5650 5651 5653 5654 5655 5657 5658 5660 5661 5663 5665 5667 5669 5671 5673 5676 5678 5679 5682 5684 5686 5688 5691 5694 5696 5700 5704 5707 5711
5636 5635 5635 5634 5634 5634 5634 5634 5634 5634 5634 5635 5635 5636 5637 5638 5640 5640 5642 5643 5644 5645 5646 5648 5650 5652 5654 5656 5659 5661 5664 5666 5668 5670 5672 5674 5677 5679 5682 5685 5689 5693 5697
5628 5626 5625 5624 5624 5623 5623 5622 5622 5622 5623 5623 5623 5623 5624 5625 5626 5627 5628 5629 5630 5630 5631 5633 5635 5637 5640 5642 5644 5647 5650 5652 5654 5656 5658 5660 5663 5665 5668 5671 5674 5678 5683
5618 5617 5616 5614 5613 5612 5611 5611 5611 5611 5611 5611 5611 5611 5611 5611 5612 5613 5613 5614 5615 5616 5617 5618 5620 5623 5625 5628 5630 5633 5635 5638 5640 5642 5644 5646 5649 5651 5653 5656 5659 5663 5667
5608 5607 5605 5604 5603 5602 5600 5600 5599 5599 5599 5599 5599 5599 5599 5599 5599 5599 5599 5600 5600 5601 5602 5603 5605 5608 5610 5613 5615 5618 5620 5622 5625 5627 5629 5631 5634 5636 5638 5641 5644 5647 5651
5598 5597 5595 5594 5592 5591 5590 5589 5588 5588 5587 5587 5587 5586 5586 5586 5586 5586 5585 5585 5586 5587 5588 5590 5591 5593 5595 5597 5599 5601 5604 5606 5609 5611 5614 5617 5619 5621 5624 5626 5629 5632 5635
5588 5586 5585 5583 5582 5580 5579 5577 5576 5576 5575 5574 5574 5573 5573 5572 5572 5572 5571 5571 5572 5573 5574 5576 5577 5578 5579 5581 5583 5585 5587 5590 5592 5595 5598 5601 5603 5606 5609 5611 5614 5617 5620
5578 5576 5574 5573 5571 5569 5568 5566 5565 5563 5562 5562 5561 5560 5559 5558 5558 5557 5557 5557 5558 5559 5560 5561 5562 5563 5564 5565 5566 5568 5570 5573 5576 5579 5582 5585 5588 5590 5593 5595 5598 5601 5604
5567 5565 5563 5561 5559 5558 5556 5554 5553 5551 5550 5549 5548 5547 5546 5544 5543 5543 5543 5543 5543 5544 5545 5546 5547 5548 5548 5549 5550 5551 5553 5556 5559 5563 5566 5569 5572 5575 5577 5579 5582 5585 5588
5557 5554 5552 5550 5548 5546 5544 5542 5541 5539 5538 5536 5535 5533 5532 5530 5529 5528 5528 5528 5529 5529 5530 5531 5532 5532 5533 5534 5534 5536 5537 5540 5543 5546 5550 5553 5556 5559 5561 5564 5566 5569 5572
5546 5544 5541 5538 5536 5534 5532 5530 5529 5527 5526 5524 5522 5520 5518 5517 5516 5515 5514 5514 5514 5515 5516 5517 5517 5518 5518 5518 5519 5520 5522 5524 5527 5530 5534 5537 5540 5543 5545 5547 5550 5553 5555
5535 5532 5530 5527 5525 5522 5520 5519 5517 5516 5514 5512 5510 5507 5505 5504 5503 5502 5501 5501 5501 5501 5502 5502 5503 5503 5503 5503 5503 5504 5506 5508 5511 5514 5517 5520 5524 5526 5529 5531 5534 5537 5539
5525 5522 5519 5516 5513 5511 5509 5507 5505 5503 5501 5499 5497 5495 5493 5492 5490 5490 5489 5488 5488 5488 5488 5488 5488 5488 5488 5488 5488 5489 5490 5492 5495 5498 5501 5504 5508 5510 5513 5515 5518 5521 5524
5514 5511 5508 5505 5502 5500 5497 5495 5493 5491 5489 5487 5485 5483 5481 5479 5479 5477 5476 5476 5475 5475 5474 5474 5474 5474 5474 5473 5473 5473 5475 5478 5480 5483 5485 5488 5492 5495 5497 5499 5503 5506 5509
5504 5501 5498 5495 5492 5489 5486 5484 5482 5479 5477 5475 5473 5471 5469 5468 5467 5465 5464 5463 5462 5462 5461 5461 5460 5460 5460 5459 5459 5459 5460 5463 5466 5468 5471 5474 5476 5478 5480 5483 5486 5490 5493
5495 5491 5488 5485 5482 5479 5476 5473 5471 5468 5465 5463 5461 5459 5457 5455 5454 5453 5452 5451 5450 5449 5448 5448 5447 5446 5446 5445 5445 5444 5445 5448 5450 5453 5455 5458 5460 5462 5465 5467 5470 5474 5477
5485 5482 5479 5475 5472 5468 5465 5463 5460 5457 5454 5452 5450 5448 5446 5444 5442 5441 5439 5438 5437 5436 5435 5434 5434 5433 5432 5431 5431 5430 5431 5432 5434 5437 5440 5442 5445 5447 5449 5452 5454 5457 5460
5476 5472 5469 5465 5462 5458 5454 5452 5449 5446 5443 5441 5439 5436 5434 5432 5430 5428 5427 5425 5424 5423 5422 5421 5420 5419 5418 5418 5417 5417 5417 5418 5419 5422 5425 5427 5429 5431 5433 5436 5439 5441 5444
5466 5463 5459 5455 5452 5448 5444 5440 5437 5435 5432 5430 5427 5425 5422 5420 5417 5416 5414 5413 5411 5410 5409 5407 5406 5406 5405 5404 5403 5403 5403 5404 5405 5407 5410 5412 5414 5416 5418 5421 5423 5426 5430
5456 5453 5449 5445 5442 5438 5434 5430 5427 5424 5421 5419 5416 5413 5411 5408 5406 5403 5401 5400 5399 5396 5395 5394 5393 5392 5391 5390 5389 5389 5390 5391 5392 5393 5395 5397 5399 5401 5404 5406 5409 5412 5415
5446 5443 5439 5435 5432 5428 5424 5420 5417 5413 5410 5407 5405 5402 5399 5396 5394 5392 5390 5387 5386 5384 5382 5381 5380 5379 5378 5377 5376 5376 5376 5377 5378 5379 5381 5383 5385 5387 5389 5392 5395 5398 5402